Location: George Washington National Forest Helicopter Landing Site
(38.6463°N, 79.0851°W)
Time: 01:21:42
(UTC-04:00)

Tiros 1 despin weight - Pass Details

Date: 22 August 2019
Orbit: 594 x 642 km, 48.2° (Epoch: 19 September)

Event Time Altitude Azimuth Distance (km) Brightness Sun altitude
Rises 07:54:06 0° 292° (WNW) 2,899 ? 14.1°
Reaches altitude 10° 07:56:44 10° 279° (W) 1,998 ? 14.6°
Maximum altitude 08:00:26 24° 225° (SW) 1,298 ? 15.3°
Drops below altitude 10° 08:04:10 10° 172° (S) 2,009 ? 16.0°
Sets 08:06:50 0° 158° (SSE) 2,919 ? 16.5°
